Notices

What's New in latest Release from April 7th, 2021:

- Updated Glossary, including Speed of Maximum Gust, and Total Hourly Precipitation

- Updated national and regional climate services offices contacts and prices information

- Addition of station inventory lists for 1981-2010, 1971-2000, and 1961-1990 Normals.

If you haven't already, please take our survey and provide feedback about our website: https://eccc.sondage-survey.ca/f/LanguageSelection.aspx?s=442ca660-fcf1-47c0-95a9-59707d6fd709

Hourly Data Report for April 01, 2017

TORONTO CITY
ONTARIO

43°40'00.000" N
79°24'00.000" W
112.50 m
6158355
71508
XTO

Download Data

Hourly Data (April 2017)
Hourly Data Report for April 1, 2017
TIME
LST
Temp Definition
°C
Dew Point Definition
°C
Rel Hum Definition
%
Precip. Amount Definition
mm

Wind Dir Definition
10's deg

Wind Spd Definition
km/h
Visibility Definition
km
Stn Press Definition
kPa
Hmdx Definition


Wind Chill Definition


Weather Definition


00:00 2.5 1.4 92 0.0 LegendMM LegendMM   99.64     LegendNANA
01:00 2.4 1.0 90 0.0 LegendMM LegendMM   99.71     LegendNANA
02:00 2.3 0.4 87 0.0 LegendMM LegendMM   99.77     LegendNANA
03:00 2.5 0.5 87 0.0 LegendMM LegendMM   99.85     LegendNANA
04:00 2.5 0.4 86 0.0 LegendMM LegendMM   99.91     LegendNANA
05:00 2.5 0.1 84 0.0 LegendMM LegendMM   99.99     LegendNANA
06:00 2.5 0.0 84 0.0 LegendMM LegendMM   100.08     LegendNANA
07:00 2.6 0.0 83 0.0 LegendMM LegendMM   100.16     LegendNANA
08:00 3.0 0.1 81 0.0 LegendMM LegendMM   100.25     LegendNANA
09:00 3.3 -0.4 77 0.0 LegendMM LegendMM   100.32     LegendNANA
10:00 4.3 -0.5 71 0.0 LegendMM LegendMM   100.35     LegendNANA
11:00 6.2 -0.1 64 0.0 LegendMM LegendMM   100.34     LegendNANA
12:00 7.0 0.6 64 0.0 LegendMM LegendMM   100.33     LegendNANA
13:00 8.0 1.0 61 0.0 LegendMM LegendMM   100.36     LegendNANA
14:00 8.7 0.6 56 0.0 LegendMM LegendMM   100.33     LegendNANA
15:00 10.3 1.7 55 0.0 LegendMM LegendMM   100.36     LegendNANA
16:00 10.5 -4.3 35 0.0 LegendMM LegendMM   100.40     LegendNANA
17:00 10.1 -4.8 35 0.0 LegendMM LegendMM   100.45     LegendNANA
18:00 9.7 -5.5 34 0.0 LegendMM LegendMM   100.47     LegendNANA
19:00 8.6 -7.4 31 0.0 LegendMM LegendMM   100.52     LegendNANA
20:00 7.6 -7.4 33 0.0 LegendMM LegendMM   100.58     LegendNANA
21:00 6.4 -6.5 39 0.0 LegendMM LegendMM   100.62     LegendNANA
22:00 5.4 -0.4 66 0.0 LegendMM LegendMM   100.63     LegendNANA
23:00 4.7 -3.7 54 0.0 LegendMM LegendMM   100.63     LegendNANA

Notes on Data Quality.

Legend

  • E = Estimated
  • M = Missing
  • NA = Not Available*
  • [empty] = Indicates an unobserved value
Date modified: